Stations météo

Publicité
Fehmarnbelt/Grosstonne, Allemagne (10043): Température de l'air & dewpoint: 06.12.2018 01:00:00 - 12.12.2018 01:00:00 (CET)Fehmarnbelt/Grosstonne, Allemagne (10043): water temperature: 06.12.2018 01:00:00 - 12.12.2018 01:00:00 (CET)Fehmarnbelt/Grosstonne, Allemagne (10043): reduced air pressure: 06.12.2018 01:00:00 - 12.12.2018 01:00:00 (CET)
Date & Time tt [°C] td [°C] tw [°C] ppp [hPa]
12.12.2018 01:00:00 5,2 1,0 6,9 1023,6
12.12.2018 00:00:00 5,4 1,4 6,9 1023,0
11.12.2018 23:00:00 5,2 1,4 7,0 1022,6
11.12.2018 22:00:00 5,4 1,2 7,2 1022,1
11.12.2018 21:00:00 5,4 1,0 7,2 1021,7
11.12.2018 20:00:00 5,4 1,9 7,2 1021,2
11.12.2018 19:00:00 5,5 1,5 7,2 1020,6
11.12.2018 18:00:00 5,5 1,2 7,2 1019,7
11.12.2018 17:00:00 5,4 1,5 7,1 1019,0
11.12.2018 16:00:00 5,7 1,8 7,0 1018,7
11.12.2018 15:00:00 6,0 2,7 6,9 1018,0
11.12.2018 14:00:00 5,7 2,4 7,0 1017,3
11.12.2018 13:00:00 5,7 2,2 7,0 1016,6
11.12.2018 12:00:00 5,5 1,9 7,0 1016,4
11.12.2018 11:00:00 5,9 2,5 7,0 1015,8
11.12.2018 10:00:00 5,7 2,2 7,2 1015,2
11.12.2018 09:00:00 6,0 2,5 7,3 1014,4
11.12.2018 08:00:00 6,2 2,9 7,2 1013,7
11.12.2018 07:00:00 6,0 2,5 7,2 1013,1
11.12.2018 06:00:00 6,2 2,2 7,2 1012,4
11.12.2018 05:00:00 6,2 1,7 7,2 1011,7
11.12.2018 04:00:00 6,2 1,7 7,3 1011,2
11.12.2018 03:00:00 6,2 1,2 7,6 1010,6
11.12.2018 02:00:00 6,4 0,9 7,5 1009,8
11.12.2018 01:00:00 6,4 1,5 7,4 1009,5
11.12.2018 00:00:00 6,5 2,2 7,2 1009,2
10.12.2018 23:00:00 6,4 1,9 7,2 1008,8
10.12.2018 22:00:00 6,2 1,9 7,2 1008,5
10.12.2018 21:00:00 6,2 2,2 7,2 1008,2
10.12.2018 20:00:00 6,4 2,0 7,2 1007,4
10.12.2018 19:00:00 6,5 2,2 7,2 1007,3
10.12.2018 18:00:00 6,5 1,7 7,3 1006,9
10.12.2018 17:00:00 6,5 2,5 7,3 1006,4
10.12.2018 16:00:00 7,0 2,9 7,3 1006,1
10.12.2018 15:00:00 6,9 3,4 7,4 1005,7
10.12.2018 14:00:00 6,4 3,0 7,6 1005,6
10.12.2018 13:00:00 6,5 3,0 7,7 1005,8
10.12.2018 12:00:00 6,5 2,2 7,8 1005,1
10.12.2018 11:00:00 6,7 2,5 7,8 1005,9
10.12.2018 10:00:00 6,5 2,7 7,8 1005,8
10.12.2018 09:00:00 6,4 2,2 7,8 1005,0
10.12.2018 08:00:00 6,2 2,2 7,7 1004,4
10.12.2018 07:00:00 6,2 2,0 7,5 1003,9
10.12.2018 06:00:00 6,2 2,2 7,9 1004,0
10.12.2018 05:00:00 6,7 1,7 7,9 1003,4
10.12.2018 04:00:00 6,7 2,4 7,8 1002,5
10.12.2018 03:00:00 6,9 2,5 7,7 1001,9
10.12.2018 02:00:00 6,9 2,7 7,4 1001,1
10.12.2018 01:00:00 7,0 2,9 7,2 1000,4
10.12.2018 00:00:00 6,9 2,5 7,3 999,8
09.12.2018 23:00:00 7,2 3,0 7,3 999,0
09.12.2018 22:00:00 7,2 4,0 7,4 998,0
09.12.2018 21:00:00 6,9 4,4 7,4 996,8
09.12.2018 20:00:00 7,0 3,0 7,5 995,0
09.12.2018 19:00:00 7,4 4,0 7,7 993,1
09.12.2018 18:00:00 7,5 4,2 7,5 991,4
09.12.2018 17:00:00 7,7 4,9 7,4 990,0
09.12.2018 16:00:00 7,7 5,0 7,3 989,3
09.12.2018 15:00:00 7,5 5,4 7,3 988,4
09.12.2018 14:00:00 7,5 4,7 7,3 987,8
09.12.2018 13:00:00 7,5 5,5 7,3 987,3
09.12.2018 12:00:00 8,0 5,5 7,2 987,2
09.12.2018 11:00:00 7,5 5,3 7,2 986,5
09.12.2018 10:00:00 7,5 5,7 7,2 985,9
09.12.2018 09:00:00 7,2 5,7 7,2 985,3
09.12.2018 08:00:00 7,4 5,7 7,1 984,4
09.12.2018 07:00:00 7,2 6,0 7,1 983,8
09.12.2018 06:00:00 7,2 5,9 7,1 983,3
09.12.2018 05:00:00 7,2 6,0 7,1 983,1
09.12.2018 04:00:00 7,0 5,7 7,2 983,0
09.12.2018 03:00:00 7,0 5,2 7,2 983,4
09.12.2018 02:00:00 7,0 5,0 7,2 983,7
09.12.2018 01:00:00 7,7 5,2 7,2 984,6
09.12.2018 00:00:00 7,5 5,2 7,2 985,5
08.12.2018 23:00:00 7,7 5,0 7,2 986,2
08.12.2018 22:00:00 7,5 5,9 7,3 987,0
08.12.2018 21:00:00 8,0 5,7 7,3 987,4
08.12.2018 20:00:00 8,2 5,7 7,3 987,8
08.12.2018 19:00:00 8,0 6,0 7,3 988,0
08.12.2018 18:00:00 7,7 6,5 7,3 988,6
08.12.2018 17:00:00 8,0 6,0 7,3 988,0
08.12.2018 16:00:00 7,9 6,2 7,3 988,5
08.12.2018 15:00:00 7,4 6,5 7,2 988,9
08.12.2018 14:00:00 7,5 6,0 7,3 989,2
08.12.2018 13:00:00 7,7 5,7 7,3 989,7
08.12.2018 12:00:00 7,5 5,0 7,2 990,4
08.12.2018 11:00:00 7,4 5,0 7,3 991,3
08.12.2018 10:00:00 7,0 4,9 7,3 991,8
08.12.2018 09:00:00 6,7 5,0 7,3 992,3
08.12.2018 08:00:00 6,0 4,7 7,3 992,9
08.12.2018 07:00:00 6,4 4,0 7,4 993,6
08.12.2018 06:00:00 6,7 3,5 7,4 993,8
08.12.2018 05:00:00 6,5 4,2 7,2 994,1
08.12.2018 04:00:00 6,5 3,7 7,2 994,4
08.12.2018 03:00:00 7,4 5,2 7,2 994,1
08.12.2018 02:00:00 7,4 4,7 7,3 993,4
08.12.2018 01:00:00 7,7 5,5 7,4 992,9
08.12.2018 00:00:00 7,5 6,2 7,3 991,7
07.12.2018 23:00:00 7,5 6,9 7,2 990,4
07.12.2018 22:00:00 9,0 8,7 7,2 989,9
07.12.2018 21:00:00 9,4 8,5 7,2 990,6
07.12.2018 20:00:00 9,4 8,9 7,2 991,4
07.12.2018 19:00:00 9,5 9,0 7,2 992,5
07.12.2018 18:00:00 10,0 9,0 7,2 993,6
07.12.2018 17:00:00 10,0 9,1 7,2 994,6
07.12.2018 16:00:00 9,7 9,5 7,2 995,8
07.12.2018 15:00:00 9,4 9,4 7,2 996,9
07.12.2018 14:00:00 9,4 9,4 7,2 998,0
07.12.2018 13:00:00 9,5 9,4 7,1 999,4
07.12.2018 12:00:00 9,7 9,4 7,1 1000,8
07.12.2018 11:00:00 9,5 9,4 7,1 1002,0
07.12.2018 10:00:00 9,0 9,0 7,1 1002,9
07.12.2018 09:00:00 8,5 8,5 7,1 1003,4
07.12.2018 08:00:00 8,0 8,0 7,1 1004,4
07.12.2018 07:00:00 8,2 8,2 7,0 1004,8
07.12.2018 06:00:00 8,2 8,2 7,0 1005,3
07.12.2018 05:00:00 8,2 8,0 7,0 1005,5
07.12.2018 04:00:00 8,4 8,2 7,0 1005,5
07.12.2018 03:00:00 8,5 8,5 6,9 1005,6
07.12.2018 02:00:00 8,4 8,3 6,9 1005,9
07.12.2018 01:00:00 8,9 8,7 6,9 1006,0
07.12.2018 00:00:00 8,4 8,2 6,9 1007,0
06.12.2018 23:00:00 8,7 8,4 6,9 1007,5
06.12.2018 22:00:00 8,5 8,4 6,8 1008,2
06.12.2018 21:00:00 8,5 8,5 6,8 1008,8
06.12.2018 20:00:00 8,5 8,4 6,8 1009,2
06.12.2018 19:00:00 8,5 8,2 6,7 1009,5
06.12.2018 18:00:00 8,0 7,9 6,7 1010,0
06.12.2018 17:00:00 7,2 7,0 6,7 1010,5
06.12.2018 16:00:00 6,4 6,2 6,7 1010,6
06.12.2018 15:00:00 6,0 5,9 6,7 1011,0
06.12.2018 14:00:00 5,5 5,4 6,7 1010,8
06.12.2018 13:00:00 5,5 5,2 6,7 1011,6
06.12.2018 12:00:00 5,4 4,9 6,7 1012,2
06.12.2018 11:00:00 4,9 4,5 6,8 1012,4
06.12.2018 10:00:00 4,7 4,0 6,8 1013,3
06.12.2018 09:00:00 4,5 3,5 6,8 1013,4
06.12.2018 08:00:00 4,5 3,5 6,8 1012,8
06.12.2018 07:00:00 4,7 2,7 6,9 1013,2
06.12.2018 06:00:00 4,7 2,2 6,8 1013,4
06.12.2018 05:00:00 5,0 1,9 6,9 1014,1
06.12.2018 04:00:00 5,0 1,7 6,9 1014,2
06.12.2018 03:00:00 4,7 1,7 6,9 1015,2
06.12.2018 02:00:00 4,9 1,4 6,9 1016,0
06.12.2018 01:00:00 5,0 1,2 6,9 1016,8

tt = Température de l'air
td = dewpoint
tw = water temperature
ppp = reduced air pressure

stations d'obs. à proximité